[[{"header":{"parameterUnit":"m.s-1","parameterCategory":1,"la1":30.2991,"la2":30.254,"lo1":-89.0895,"lo2":-89.0444,"dy":0.0017,"dx":0.0017,"nx":28,"ny":28,"refTime":"2025-07-25T21:00:00:Z","depth":0,"parameterNumber":2,"parameterNumberName":"U-component_of_WINDS"},"data":[0,0,0,0,0,0,0,0,0,0,0,0,0,0,0,0,0,0,0,0,0,0,0,0,0,0,0,0,0,0,0,0,0,0,0,0,0,0,0,0,0,0,0,0,0,0,0,0,0,0,0,0,0,0,0,0,0,0,0.2936,0.2936,0,0.2982,0.2983,0.2983,0.3,0.3,0.3,0.3,0.3046,0.3048,0.3049,0,0,0,0,0,0,0,0,0,0,0,0,0,0.2861,0.2862,0.2936,0.2936,0.2937,0.2982,0.2983,0.2983,0.3,0.3,0.3,0.3,0.3046,0.3048,0.3049,0,0,0,0,0,0,0,0,0,0,0,0,0,0.2899,0.2863,0.2936,0.2951,0.2953,0.2982,0.2983,0.2984,0.3,0.3,0.3,0.3,0.3045,0.3047,0.3049,0.3067,0,0,0.3056,0.3057,0,0,0,0,0,0,0,0,0.2897,0.2902,0.2948,0.295,0.2952,0.2985,0.2973,0.3011,0.3001,0.2982,0.3,0.3,0.3026,0.303,0.3039,0.3069,0.3071,0.3056,0.3057,0.3058,0.3059,0,0,0,0,0,0,0,0.2894,0.29,0.2954,0.2949,0.2951,0.2955,0.296,0.2981,0.3005,0.2984,0.2985,0.2991,0.3027,0.3037,0.304,0.3072,0.3056,0.3058,0.3059,0.306,0.3118,0.3118,0,0,0,0,0,0,0.2889,0.2897,0.2953,0.2956,0.2923,0.2957,0.2962,0.2975,0.3005,0.3009,0.2991,0.2991,0.3034,0.3038,0.3042,0.3064,0.3058,0.306,0.3061,0.3117,0.3118,0.3118,0,0,0,0,0,0,0.2887,0.2894,0.2951,0.2927,0.2934,0.2958,0.2972,0.2976,0.2986,0.301,0.3014,0.2996,0.3034,0.3039,0.306,0.3066,0.3061,0.3063,0.3117,0.3117,0.3118,0.3108,0,0,0,0,0,0,0.2885,0.2893,0.29,0.2927,0.2936,0.2969,0.2972,0.2977,0.2989,0.299,0.3016,0.302,0.3034,0.3057,0.3062,0.3068,0.3064,0.3117,0.3117,0.3118,0.3108,0.3108,0.3108,0,0,0,0,0,0.2882,0.2895,0.29,0.2907,0.2945,0.2969,0.2974,0.299,0.299,0.2997,0.3012,0.302,0.3064,0.3059,0.3065,0.3072,0.3116,0.3117,0.3118,0.3108,0.3108,0.3108,0,0,0,0,0,0,0.2868,0.2899,0.2905,0.2927,0.2945,0.2972,0.2981,0.2989,0.3008,0.3008,0.3026,0.3032,0.3051,0.3064,0.3058,0.309,0.3091,0.3093,0.3081,0.3082,0.3082,0.3078,0.3066,0,0,0,0,0,0.2868,0.2885,0.2911,0.2928,0.2937,0.2957,0.2968,0.2979,0.2998,0.3006,0.3023,0.3042,0.306,0.3071,0.309,0.311,0.3116,0.3117,0.3117,0.3117,0.3119,0.313,0.3131,0.312,0.312,0.312,0,0,0.2866,0.2886,0.2895,0.2925,0.2941,0.2958,0.2964,0.2982,0.2995,0.3009,0.303,0.3043,0.3065,0.3086,0.3096,0.3097,0.3123,0.3118,0.3118,0.3119,0.3131,0.3132,0.3133,0.3121,0.3121,0.312,0,0,0.2873,0.289,0.2906,0.2921,0.2944,0.2958,0.2962,0.2987,0.2997,0.3018,0.3029,0.3045,0.3076,0.3091,0.3102,0.3115,0.3122,0.312,0.312,0.3131,0.3132,0.3133,0.3137,0.3139,0.3121,0.3121,0.3121,0,0.2869,0.2896,0.2913,0.293,0.2943,0.2957,0.2973,0.2987,0.3014,0.3023,0.3024,0.3063,0.3078,0.3103,0.3106,0.3115,0.312,0.3117,0.3131,0.3132,0.3133,0.3137,0.3139,0.3121,0.3121,0.3121,0.3121,0,0.2889,0.2907,0.2917,0.2944,0.2958,0.2975,0.2994,0.3006,0.3015,0.3028,0.305,0.3069,0.3091,0.3098,0.3107,0.3124,0.3124,0.3127,0.3128,0.3133,0.3138,0.3139,0.312,0.3121,0.3121,0.3121,0,0,0.2888,0.2924,0.2928,0.294,0.2967,0.2981,0.2998,0.302,0.303,0.3049,0.3063,0.3089,0.3093,0.3106,0.3117,0.3126,0.3135,0.3129,0.313,0.3129,0.3154,0.3151,0.3152,0.314,0.314,0.3141,0.3152,0,0.2898,0.293,0.2945,0.297,0.2987,0.3,0.3015,0.3033,0.3046,0.3062,0.3076,0.3094,0.3098,0.3106,0.3116,0.3132,0.314,0.3131,0.3153,0.3154,0.3147,0.3155,0.3152,0.3162,0.3154,0.3154,0.3154,0,0.2914,0.2933,0.296,0.2984,0.2992,0.3005,0.3027,0.3042,0.3062,0.3071,0.3086,0.3096,0.3114,0.3114,0.3139,0.3133,0.3143,0.3152,0.3152,0.3155,0.3154,0.3157,0.3165,0.3167,0.3157,0.3157,0.3157,0,0.2911,0.2943,0.2963,0.2973,0.3002,0.3011,0.3024,0.3044,0.3056,0.3075,0.3083,0.3103,0.3114,0.3129,0.3145,0.3144,0.3168,0.317,0.3176,0.3176,0.318,0.318,0.319,0.3187,0.3187,0.3187,0.3187,0,0.292,0.2936,0.2961,0.2974,0.2991,0.3009,0.3026,0.3039,0.3057,0.3072,0.3085,0.3098,0.3118,0.3134,0.3147,0.3165,0.317,0.3178,0.3181,0.3177,0.3176,0.3183,0.3183,0.3188,0.3188,0.3187,0.3187,0,0.2919,0.2937,0.2959,0.2986,0.2992,0.3004,0.3026,0.3039,0.3052,0.3071,0.3076,0.3098,0.3117,0.3134,0.316,0.3168,0.3187,0.3191,0.3181,0.3182,0.3187,0.3187,0.3203,0.3205,0.3201,0.3201,0.3201,0,0.2924,0.2936,0.2964,0.2975,0.2987,0.3005,0.3017,0.3035,0.3048,0.3072,0.3081,0.3101,0.3119,0.3149,0.3167,0.3186,0.3191,0.3195,0.3194,0.3189,0.3191,0.319,0.3191,0.3195,0.3195,0.3195,0.3195,0,0.2931,0.2939,0.2957,0.2978,0.2992,0.301,0.3027,0.3035,0.3056,0.307,0.309,0.3103,0.313,0.315,0.3171,0.3184,0.3193,0.3195,0.3197,0.3193,0.3186,0.319,0.318,0.3194,0.3194,0.3194,0.3194,0.3194,0.2932,0.2944,0.2965,0.2985,0.3,0.3016,0.3029,0.3044,0.3061,0.3084,0.3094,0.3114,0.3134,0.3164,0.3177,0.3193,0.3194,0.3198,0.3199,0.3199,0.3199,0.3184,0.3197,0.3197,0.3197,0.3197,0.3197,0,0.294,0.2954,0.2972,0.2996,0.3011,0.3018,0.3038,0.305,0.3068,0.3086,0.3103,0.3126,0.3146,0.3165,0.3186,0.3195,0.3199,0.3199,0.3199,0.3202,0.3196,0.3192,0.3195,0.3195,0.3195,0.3195,0.3195,0.3195,0.2945,0.2965,0.2976,0.3003,0.3017,0.3037,0.3048,0.3063,0.3078,0.3103,0.3119,0.3132,0.315,0.3172,0.319,0.3195,0.3202,0.3201,0.3208,0.3202,0.3202,0.3202,0.3198,0.3203,0.3203,0.3212,0.3212,0.3212]},{"header":{"parameterUnit":"m.s-1","parameterCategory":1,"la1":30.2991,"la2":30.254,"lo1":-89.0895,"lo2":-89.0444,"dy":0.0017,"dx":0.0017,"nx":28,"ny":28,"refTime":"2025-07-25T21:00:00:Z","depth":0,"parameterNumber":3,"parameterNumberName":"V-component_of_WINDS"},"data":[0,0,0,0,0,0,0,0,0,0,0,0,0,0,0,0,0,0,0,0,0,0,0,0,0,0,0,0,0,0,0,0,0,0,0,0,0,0,0,0,0,0,0,0,0,0,0,0,0,0,0,0,0,0,0,0,0,0,2.9636,2.9636,0,2.9657,2.9657,2.9657,2.9594,2.9592,2.959,2.9588,2.9609,2.9611,2.9614,0,0,0,0,0,0,0,0,0,0,0,0,0,2.9539,2.9541,2.9636,2.9636,2.9636,2.9657,2.9657,2.9657,2.9594,2.9592,2.9589,2.9587,2.9608,2.9611,2.9614,0,0,0,0,0,0,0,0,0,0,0,0,0,2.9573,2.9542,2.9636,2.9607,2.9605,2.9657,2.9657,2.9657,2.9595,2.9592,2.9589,2.9586,2.9607,2.9611,2.9614,2.9694,0,0,2.9625,2.9627,0,0,0,0,0,0,0,0,2.9571,2.9576,2.9611,2.9609,2.9607,2.962,2.963,2.967,2.9595,2.9599,2.9588,2.9585,2.9615,2.9618,2.9628,2.9695,2.9696,2.9625,2.9628,2.9629,2.963,0,0,0,0,0,0,0,2.9569,2.9575,2.9644,2.9612,2.9609,2.9593,2.9594,2.9638,2.9623,2.9598,2.9593,2.9597,2.9613,2.9625,2.9628,2.9697,2.9625,2.9629,2.9631,2.9632,2.9828,2.9831,0,0,0,0,0,0,2.957,2.9574,2.9643,2.9645,2.9581,2.9597,2.9599,2.9618,2.9622,2.962,2.9599,2.9594,2.962,2.9624,2.9628,2.972,2.9629,2.9632,2.9634,2.9825,2.9829,2.9832,0,0,0,0,0,0,2.9568,2.9577,2.9642,2.9608,2.9615,2.9602,2.9624,2.962,2.9632,2.9623,2.962,2.9614,2.9618,2.9623,2.9678,2.972,2.9634,2.9637,2.9821,2.9826,2.983,2.9906,0,0,0,0,0,0,2.9566,2.9577,2.9608,2.9609,2.9617,2.9692,2.9627,2.9623,2.9638,2.9631,2.9636,2.9634,2.9616,2.9673,2.9681,2.9724,2.964,2.9817,2.9823,2.9829,2.99,2.9913,2.9924,0,0,0,0,0,2.9563,2.9629,2.9609,2.9618,2.9655,2.9695,2.9699,2.9678,2.9642,2.9672,2.9666,2.9634,2.9715,2.9679,2.9688,2.9732,2.9815,2.9822,2.9828,2.9894,2.991,2.9924,0,0,0,0,0,0,2.9633,2.9628,2.9607,2.9676,2.9686,2.9684,2.9722,2.9696,2.9716,2.9709,2.9681,2.9682,2.9741,2.9742,2.9703,2.9808,2.9758,2.9767,2.9805,2.9821,2.9832,2.983,2.9643,0,0,0,0,0,2.9656,2.9689,2.9683,2.9744,2.9751,2.9736,2.9752,2.9734,2.9744,2.9748,2.9746,2.9756,2.9783,2.9802,2.9827,2.99,2.9899,2.9935,2.9947,2.9957,2.9964,3.0001,3.0016,2.9855,2.9855,2.9854,0,0,2.9705,2.9707,2.9729,2.9758,2.9764,2.9798,2.974,2.9779,2.9803,2.9754,2.9804,2.9803,2.9813,2.9876,2.9904,2.9879,3.0009,2.9965,2.9973,2.9976,3.0009,3.0025,3.0038,2.9859,2.9858,2.9858,0,0,2.9811,2.9816,2.9866,2.9873,2.9883,2.9872,2.9884,2.9886,2.9883,2.9934,2.9897,2.9925,2.9974,2.9981,2.9992,3.0099,3.0069,3.0108,3.017,3.0206,3.0219,3.023,3.0266,3.028,3.0116,3.0116,3.0116,0,2.987,2.992,2.9896,2.9936,2.9949,2.9906,2.9956,2.9964,2.9981,2.9991,2.9962,3.0021,3.0025,3.0088,3.0114,3.0124,3.0136,3.0107,3.0219,3.023,3.024,3.0274,3.0288,3.012,3.012,3.012,3.0119,0,2.9991,3.0026,3.0066,3.0083,3.01,3.0146,3.0127,3.0148,3.0128,3.012,3.0171,3.0174,3.0197,3.0211,3.0193,3.0272,3.0256,3.0224,3.0173,3.026,3.0292,3.0305,3.0127,3.0125,3.0124,3.0123,0,0,3.0142,3.0144,3.0159,3.0165,3.0172,3.0198,3.024,3.0263,3.0281,3.0294,3.0328,3.0369,3.0339,3.0351,3.0333,3.0365,3.0446,3.0328,3.0328,3.0349,3.0531,3.0554,3.057,3.0427,3.043,3.0432,3.053,0,3.0244,3.0317,3.0296,3.0368,3.0399,3.0358,3.0395,3.0402,3.0396,3.042,3.0413,3.0442,3.0401,3.0407,3.0437,3.043,3.0482,3.0423,3.0457,3.0459,3.0454,3.0586,3.0611,3.0703,3.0542,3.0544,3.0546,0,3.0374,3.0391,3.0467,3.0466,3.0478,3.0512,3.053,3.0554,3.0562,3.0555,3.0567,3.0542,3.0583,3.0532,3.0587,3.0547,3.056,3.0558,3.0561,3.0563,3.0506,3.0589,3.0733,3.0746,3.0565,3.0564,3.0562,0,3.0474,3.0516,3.0566,3.0573,3.0574,3.0598,3.06,3.0604,3.0619,3.0635,3.0643,3.0664,3.0676,3.0692,3.0673,3.0638,3.073,3.0678,3.0724,3.0724,3.0744,3.0742,3.0889,3.0755,3.0755,3.0754,3.0754,0,3.0589,3.0637,3.061,3.0641,3.0692,3.0667,3.0718,3.0715,3.0719,3.0748,3.0714,3.0742,3.0715,3.074,3.0726,3.0772,3.0778,3.0772,3.0768,3.0775,3.0775,3.0781,3.0774,3.0758,3.0757,3.0757,3.0756,0,3.0709,3.0694,3.0745,3.0742,3.0742,3.078,3.0776,3.0804,3.0795,3.0831,3.0838,3.0824,3.0851,3.0834,3.0862,3.0852,3.0912,3.0899,3.0909,3.0905,3.0951,3.0946,3.1106,3.1125,3.098,3.0981,3.0983,0,3.0783,3.0818,3.0818,3.0835,3.0838,3.0866,3.088,3.0856,3.0872,3.0882,3.0909,3.0933,3.0951,3.0997,3.0988,3.1009,3.0995,3.105,3.0998,3.1003,3.0994,3.0992,3.0994,3.106,3.1062,3.1063,3.1064,0,3.0916,3.0906,3.0928,3.0946,3.0964,3.0978,3.0989,3.1004,3.098,3.1,3.1027,3.1041,3.1069,3.1093,3.111,3.1111,3.1083,3.108,3.1092,3.1098,3.1102,3.1099,3.0936,3.1077,3.1075,3.1074,3.1074,3.1073,3.1014,3.1042,3.1046,3.1071,3.1076,3.1087,3.1112,3.1105,3.1128,3.1148,3.1133,3.1165,3.1169,3.1189,3.1194,3.1218,3.1196,3.1213,3.1217,3.1221,3.1226,3.1099,3.1221,3.1221,3.1221,3.122,3.122,0,3.1143,3.1143,3.1166,3.1182,3.1201,3.1173,3.1183,3.1201,3.1229,3.1236,3.1254,3.1285,3.1308,3.1301,3.1321,3.1341,3.1329,3.1347,3.1345,3.1345,3.1246,3.1233,3.1357,3.1357,3.1357,3.1357,3.1357,3.1357,3.1212,3.1258,3.1248,3.1296,3.1296,3.1327,3.1335,3.1344,3.1349,3.1384,3.1403,3.1398,3.1399,3.1418,3.1438,3.1435,3.1443,3.1466,3.1459,3.1366,3.1352,3.1339,3.1327,3.1469,3.1469,3.1555,3.1556,3.1557]}]]